"Pseudo-MPEC" for P10Lp18

Created 2019 Jan 12 0:18:44 UT using Find_Orb

Click here for an explanation of pseudo-MPECs

 
 Astrometry: 
     P10Lp18  C2019 01 112!$_2a[doKwX4)h\Z_J6uJ`d(AstrometryyN2-yBs!X3bnQXsNjF51
     P10Lp18  C2019 01 11n\Cdvl2)kUFV53r]d*VlNd$`.peVRetO)NKu`.Aoeg%Tx7\Gd1ehF51
     P10Lp18  C2019 01 11Wt,+[FboMCu[wsL;Uredacted;NZ@9HlAa)$`+\4kAh'AQ]kX'f:F51
     P10Lp18 KC2019 01 11TibV[)q-W#Clo?ZP:e3+D:K8sdXG3MUVi1kr]/Yn2W:[vu1j:yP8L01
     P10Lp18 IC2019 01 11g-jBcY.TQkcd_OA1qOvbCul\im2Uguwt??7xMk)r.n28ifIa;E#8L01
     P10Lp18 KC2019 01 11?*\XclickV6pT=;86J`HbO4e6)0mA+poYWi=m_uIukX9ap)eVQ'_L01
     P10Lp18 KC2019 01 11w`m1sJ6`eA51y(ro1]%de50;7f^i(x\:qan-Y.Mx^VI89O.W:Dg/L01
     P10Lp18 KC2019 01 11;*=Vx%5aRi_6ielmW_Bfp6d]Eyjl$Z8?dVu=[d$3S=#w(Ij:bfZXB49
     P10Lp18 KC2019 01 11mGthere`@^oUQ3YdgPA3jbMRN-d*QY_NrRPl8p+.@`_St#tJD8]hB49
     P10Lp18 KC2019 01 112=qQ6$'\pQg%qN%HByrf8VUl@Ou84anQ3Eg7$a2kf)s+.A'bnGT$B49
     P10Lp18 KC2019 01 11t]_Kp^maeqwbiZ\NCW/+%V9]3_\s[LmreBJe]i\_@y(T50wF?\LvL29
     P10Lp18 KC2019 01 11pr)B]Gda3GPI`JHi%7yV^?90;hsforX#?:MkCI(D3D14N[uy]d$uK38
     P10Lp18 KC2019 01 11Qpp/Mi#!Z$=E8a05E!4]?lX]'k?.hq$^R(^-b^1Y)#@n*V9_Dv%kL29
     P10Lp18 KC2019 01 11A,_Zg7bKD$//^m3$a=4TV3Q5$9Qvm3V4s;H`,0eP5u:sBMQ]D@7TK38
     P10Lp18 KC2019 01 11-O.c=(YfBev.pe]08Y7D5dSi=PYt2U[acexplanationD$EWjhCAL29

Station data:
(B49) Paus Observatory, Sabadell  (N41.551135 E2.112690)  Spain.
(F51) Pan-STARRS 1, Haleakala  (N20.707235 W156.255910)  US/Hawaii.
   Observers N. Primak, A. Schultz, S. Watters, J. Thiel, T. Goggia. Measurer
   PS1 Science Consortium. 1.8-m Ritchey-Chrétien + CCD.
(K38) M57 Observatory, Saltrio  (N45.873785 E8.918240)  Italy.
(L01) Višnjan Observatory, Tičan  (N45.290900 E13.749300)  Croatia.
   Observers K. Korlević, E. Pettarin. Measurer E. Pettarin. 1.0-m f/2.9
   reflector + CCD.
(L29) Drebach-South Observatory, Windhoek  (S23.460102 E18.016900)  Namibia.

Orbital elements:  P10Lp18
   Perihelion 2018 Dec 23.206343 +/- 0.301 TT =  4:57:08 (JD 2458475.706343)
Epoch 2019 Jan 12.0 TT = JDT 2458495.5   Earth MOID: 0.0496   AutoNEOCP
M   5.24633092 +/- 0.09             (J2000 ecliptic)
n   0.26505112 +/- 0.00194          Peri.  163.07629 +/- 0.38
a   2.40021209 +/- 0.0117           Node   282.98945 +/- 0.019
e   0.5747448 +/- 0.00203           Incl.   13.32493 +/- 0.08
P   3.72                   H 22.2   G  0.15   U  8.6  
q 1.02070267 +/- 0.000824    Q 3.77972151 +/- 0.0233
From 15 observations 2019 Jan. 11 (14.1 hr); mean residual 0".34
Residuals in arcseconds: 
190111 F51  .46-  .49+    190111 L01  .63-  .26-    190111 L29  .03+  .15+    
190111 F51  .38+  .28-    190111 L01  .03-  .21-    190111 K38  .26-  .37+    
190111 F51  .19+  .18-    190111 B49  .41+  .43+    190111 L29  .10+  .15-    
190111 L01  .38-  .12+    190111 B49  .43+  .42+    190111 K38  .11+  .64-    
190111 L01  .17-  .56-    190111 B49  .48+  .27+    190111 L29  .32-  .04-    

Ephemerides (geocentric):
Date (UTC) HH   RA              Dec         delta   r     elong  mag " sig PA
---- -- -- --  -------------   -----------  ------ ------ -----  --- ---- ---
2019 01 12 00  05 29 45.610   +04 08 27.50  .08176 1.0519 145.6 18.3 .390 122
2019 01 12 01  05 30 15.293   +04 01 58.91  .08191 1.0520 145.6 18.3 .577 125
2019 01 12 02  05 30 44.874   +03 55 31.68  .08205 1.0522 145.6 18.3 .783 126
2019 01 12 03  05 31 14.352   +03 49 05.81  .08219 1.0523 145.6 18.3 1.01 127
2019 01 12 04  05 31 43.728   +03 42 41.31  .08234 1.0524 145.6 18.3 1.25 128
2019 01 12 05  05 32 13.002   +03 36 18.17  .08248 1.0526 145.6 18.3 1.50 129
2019 01 12 06  05 32 42.174   +03 29 56.40  .08263 1.0527 145.6 18.3 1.78 129
2019 01 12 07  05 33 11.245   +03 23 36.00  .08277 1.0528 145.6 18.3 2.07 129
2019 01 12 08  05 33 40.214   +03 17 16.97  .08292 1.0530 145.6 18.3 2.37 129
2019 01 12 09  05 34 09.083   +03 10 59.31  .08307 1.0531 145.6 18.3 2.69 130
2019 01 12 10  05 34 37.851   +03 04 43.02  .08322 1.0532 145.6 18.3 3.03 130
2019 01 12 11  05 35 06.519   +02 58 28.11  .08337 1.0533 145.6 18.3 3.39 130
2019 01 12 12  05 35 35.087   +02 52 14.57  .08352 1.0535 145.7 18.3 3.75 130
2019 01 12 13  05 36 03.555   +02 46 02.41  .08367 1.0536 145.7 18.3 4.14 130
2019 01 12 14  05 36 31.924   +02 39 51.63  .08382 1.0537 145.7 18.3 4.54 130
2019 01 12 15  05 37 00.194   +02 33 42.22  .08397 1.0539 145.7 18.3 4.95 130
2019 01 12 16  05 37 28.364   +02 27 34.19  .08412 1.0540 145.7 18.3 5.38 130
2019 01 12 17  05 37 56.436   +02 21 27.54  .08427 1.0541 145.7 18.3 5.83 130
2019 01 12 18  05 38 24.410   +02 15 22.27  .08443 1.0543 145.7 18.3 6.28 130
2019 01 12 19  05 38 52.286   +02 09 18.38  .08458 1.0544 145.7 18.3 6.76 130
2019 01 12 20  05 39 20.064   +02 03 15.87  .08474 1.0545 145.7 18.3 7.24 130
2019 01 12 21  05 39 47.745   +01 57 14.74  .08489 1.0547 145.7 18.3 7.74 130
2019 01 12 22  05 40 15.328   +01 51 14.99  .08505 1.0548 145.7 18.3 8.25 131
2019 01 12 23  05 40 42.815   +01 45 16.62  .08521 1.0549 145.7 18.3 8.78 131
2019 01 13 00  05 41 10.205   +01 39 19.62  .08536 1.0551 145.7 18.3 9.32 131
2019 01 13 01  05 41 37.499   +01 33 24.01  .08552 1.0552 145.7 18.4 9.87 131
2019 01 13 02  05 42 04.697   +01 27 29.78  .08568 1.0553 145.6 18.4 10.4 131
2019 01 13 03  05 42 31.800   +01 21 36.92  .08584 1.0555 145.6 18.4 11.0 131
2019 01 13 04  05 42 58.807   +01 15 45.44  .08600 1.0556 145.6 18.4 11.6 131
2019 01 13 05  05 43 25.719   +01 09 55.34  .08616 1.0557 145.6 18.4 12.2 131
2019 01 13 06  05 43 52.537   +01 04 06.61  .08632 1.0559 145.6 18.4 12.8 131
2019 01 13 07  05 44 19.260   +00 58 19.26  .08648 1.0560 145.6 18.4 13.5 131
2019 01 13 08  05 44 45.889   +00 52 33.28  .08665 1.0562 145.6 18.4 14.1 131
2019 01 13 09  05 45 12.424   +00 46 48.68  .08681 1.0563 145.6 18.4 14.7 131
2019 01 13 10  05 45 38.865   +00 41 05.44  .08697 1.0564 145.6 18.4 15.4 131
2019 01 13 11  05 46 05.214   +00 35 23.58  .08714 1.0566 145.6 18.4 16.1 131
2019 01 13 12  05 46 31.470   +00 29 43.09  .08730 1.0567 145.6 18.4 16.8 131
2019 01 13 13  05 46 57.633   +00 24 03.97  .08747 1.0568 145.6 18.4 17.5 131
2019 01 13 14  05 47 23.703   +00 18 26.21  .08764 1.0570 145.6 18.4 18.2 131
2019 01 13 15  05 47 49.682   +00 12 49.82  .08780 1.0571 145.6 18.4 18.9 131
2019 01 13 16  05 48 15.570   +00 07 14.79  .08797 1.0572 145.6 18.4 19.6 131
2019 01 13 17  05 48 41.366   +00 01 41.12  .08814 1.0574 145.6 18.4 20.4 131
2019 01 13 18  05 49 07.070   -00 03 51.19  .08831 1.0575 145.6 18.4 21.1 131
2019 01 13 19  05 49 32.685   -00 09 22.14  .08848 1.0577 145.5 18.4 21.9 131
2019 01 13 20  05 49 58.208   -00 14 51.73  .08865 1.0578 145.5 18.4 22.6 131
2019 01 13 21  05 50 23.642   -00 20 19.97  .08882 1.0579 145.5 18.4 23.4 131
2019 01 13 22  05 50 48.986   -00 25 46.85  .08899 1.0581 145.5 18.4 24.2 131
2019 01 13 23  05 51 14.241   -00 31 12.39  .08916 1.0582 145.5 18.4 25.0 131